Theta_e
318 329 339 341 340 340 340 340 341 341 341 342 343 344 345 345 345 345 346 347 348 349 349 348 348 348 348 347 344 343 342 343 344 340 338 339 339 338 340 340 345 340 347
319 326 334 335 335 335 335 335 335 334 335 335 335 337 339 339 339 341 341 342 343 346 348 348 348 348 347 347 346 344 342 343 343 341 337 334 338 338 339 339 344 341 345
317 320 325 331 331 331 331 331 331 331 331 331 331 331 332 332 332 333 333 336 341 343 345 345 345 345 345 347 347 347 345 345 343 342 339 329 327 338 338 338 342 344 344
316 318 321 328 328 328 327 327 327 327 327 327 328 328 327 327 328 328 329 331 332 335 337 340 342 342 341 342 344 346 345 345 343 340 334 331 328 335 338 338 339 342 343
313 318 321 326 325 325 325 325 325 324 324 325 325 325 325 325 325 325 325 325 326 328 330 331 332 333 334 336 339 341 343 343 342 338 333 331 328 331 338 340 339 342 342
310 315 321 323 323 323 323 323 323 322 321 321 321 322 321 321 321 321 322 323 323 324 325 326 326 326 327 328 331 336 338 336 338 334 332 332 332 337 338 340 343 342 341
306 309 313 321 321 321 321 321 320 320 318 318 318 317 318 318 317 317 319 320 321 321 322 322 322 323 324 324 325 326 327 326 324 334 332 332 330 338 340 339 344 343 342
305 306 308 316 318 318 318 317 317 317 315 315 314 314 314 313 314 314 316 317 317 318 318 319 319 319 319 319 319 320 320 323 319 324 334 332 335 340 341 340 341 345 343
301 301 302 302 308 314 314 313 314 313 312 312 310 309 309 309 309 310 311 313 314 314 314 315 315 315 314 313 314 314 314 320 318 317 326 334 336 342 343 342 342 345 345
297 296 296 296 296 299 302 310 310 309 308 308 307 305 303 303 304 306 306 308 310 310 311 311 311 311 310 309 309 310 310 310 307 315 325 329 335 340 343 343 342 345 344
295 294 294 294 294 296 297 300 302 305 303 302 301 302 297 294 296 296 303 304 305 306 307 308 308 307 306 304 305 306 305 302 302 308 312 325 331 337 341 342 342 343 344
292 293 294 294 294 294 298 294 294 295 293 293 294 293 294 292 295 296 297 300 301 301 302 303 304 302 300 297 297 301 299 299 300 302 306 313 318 327 333 338 341 342 342
293 294 294 293 293 293 293 292 292 292 291 291 291 292 292 292 290 291 290 291 291 296 293 294 294 294 295 295 296 297 298 298 298 300 303 308 312 317 324 329 333 337 341
293 294 294 294 293 292 292 291 290 292 290 290 291 292 290 290 289 289 289 290 289 291 291 291 292 293 293 295 296 296 297 297 298 300 300 306 309 313 317 321 326 330 335
293 293 293 293 292 293 291 291 290 290 290 289 290 291 291 289 289 289 289 289 289 290 290 290 291 292 292 293 295 295 296 296 297 299 299 304 306 310 313 317 321 326 329
294 293 293 293 293 293 291 290 290 289 289 289 289 289 291 290 289 289 288 289 288 289 290 290 290 290 291 292 293 294 294 295 296 297 298 300 304 307 310 313 316 320 324
294 294 293 293 293 292 291 290 290 290 290 289 289 290 290 291 289 288 288 288 288 289 290 290 290 291 290 291 291 292 292 293 294 295 297 299 300 304 307 311 313 316 319
295 294 294 296 293 291 290 290 290 289 289 288 289 289 289 290 289 288 288 287 289 290 290 289 289 289 289 289 289 290 291 292 293 294 295 297 299 301 304 307 309 311 314
295 294 293 293 292 291 290 290 289 289 288 289 288 287 288 289 289 287 287 288 289 289 289 289 289 288 287 288 289 290 290 290 292 293 293 295 296 298 299 302 305 306 309
294 293 293 292 291 290 290 288 288 288 288 287 287 287 288 288 289 288 288 288 288 287 287 287 287 288 287 288 289 289 289 290 291 291 292 295 296 298 299 300 300 302 307
292 292 291 291 290 289 287 286 286 286 286 286 286 288 288 287 289 288 287 287 287 286 286 287 287 286 286 287 287 286 288 289 289 290 292 293 295 298 299 301 301 302 304
291 291 291 291 290 290 288 287 286 285 285 286 286 287 287 288 289 289 287 286 286 285 285 285 285 285 285 287 284 285 282 286 290 290 290 292 292 293 294 296 299 298 301
290 290 291 291 290 289 289 287 286 286 285 284 285 285 285 287 288 287 286 286 285 285 284 284 285 284 284 286 287 285 282 281 285 288 289 290 290 291 292 294 296 299 299
288 288 289 289 289 289 288 287 285 285 284 284 283 283 284 286 286 286 286 285 284 284 284 284 286 285 285 284 286 289 288 289 284 281 287 289 290 291 292 293 295 296 297
287 286 287 287 288 288 288 286 285 284 284 283 282 282 283 284 285 285 285 285 284 284 287 287 287 285 286 286 286 288 288 288 289 285 282 286 290 290 291 293 294 294 295
286 286 286 286 287 288 287 286 285 284 283 281 281 281 282 282 283 284 285 285 285 286 287 288 288 288 288 288 289 288 287 286 286 286 285 285 286 288 291 292 292 294 295
Wind_Speed
2 3 13 17 17 17 17 18 18 17 17 17 17 16 16 16 15 15 14 14 12 11 10 9 8 8 7 4 4 4 4 4 5 6 8 8 8 6 5 5 8 5 4
4 5 14 17 18 17 15 16 16 16 16 16 17 16 17 16 15 15 15 13 13 13 13 12 12 11 9 5 2 2 2 2 3 3 5 6 6 5 4 4 8 4 1
7 6 7 15 17 16 14 15 16 16 16 16 16 16 17 16 16 16 16 14 14 14 15 14 14 14 15 14 9 4 1 1 1 2 3 3 3 4 2 2 5 6 3
6 6 7 15 16 15 15 15 16 16 16 16 16 16 17 17 16 16 16 16 16 15 15 15 15 16 15 15 15 14 8 3 2 3 1 2 3 6 3 2 3 5 6
7 6 8 14 16 15 15 16 16 16 17 17 17 17 17 17 17 17 16 16 15 15 14 14 14 15 14 14 14 13 15 14 5 2 2 1 3 5 7 4 5 5 5
6 5 11 15 15 16 15 16 15 16 17 17 17 17 17 17 17 16 16 16 16 15 15 15 14 14 13 14 14 14 14 15 13 3 3 2 3 7 7 7 5 7 6
6 6 7 15 15 15 15 15 15 16 17 17 17 18 17 17 17 17 17 17 16 16 16 16 15 15 16 16 16 14 15 15 8 6 4 5 3 8 8 8 9 8 10
7 7 7 11 13 14 15 15 15 16 16 16 17 17 17 17 17 17 17 17 16 16 16 16 16 16 16 16 16 17 16 14 7 6 5 4 8 9 10 10 9 10 11
6 7 6 7 9 13 14 15 14 16 16 16 16 17 17 17 17 17 17 17 17 17 16 16 16 16 17 17 17 17 18 16 6 4 6 4 9 14 13 11 12 11 13
5 6 6 6 6 6 6 13 13 14 15 15 15 14 15 15 16 16 16 17 17 17 17 17 16 17 17 16 16 17 17 14 9 8 4 4 12 15 16 16 13 13 12
3 5 4 5 5 6 6 7 9 12 13 12 11 12 10 5 6 9 13 16 16 17 17 17 17 16 16 15 16 16 14 5 7 5 5 13 16 16 17 17 17 15 14
5 4 4 4 4 4 4 5 5 5 5 5 5 6 4 5 5 7 9 14 15 16 15 16 16 15 12 5 4 10 4 6 4 5 5 17 19 19 18 18 19 18 17
5 3 5 5 4 5 4 3 2 3 3 4 6 5 5 4 4 4 3 4 4 10 4 7 7 5 6 5 5 4 5 5 3 4 8 17 19 19 19 19 20 19 19
7 7 6 5 5 4 3 3 3 3 3 3 4 5 4 3 4 4 3 4 4 3 5 4 3 5 6 6 5 6 5 4 4 4 6 16 18 20 20 20 19 20 20
7 7 7 6 5 5 4 3 3 3 3 3 3 4 4 4 4 3 4 4 4 4 3 4 4 5 5 6 5 5 6 6 6 5 5 15 18 19 20 21 21 21 20
7 7 7 7 6 5 4 4 3 3 3 3 2 2 3 2 2 3 3 3 3 3 3 3 4 4 4 4 6 6 6 6 7 7 6 8 18 19 19 20 22 23 22
6 6 8 7 6 6 4 3 3 2 3 3 2 3 3 3 3 3 3 3 3 3 5 4 4 4 4 5 6 6 7 7 6 8 7 7 9 17 18 19 20 21 22
6 9 7 6 7 6 4 3 2 2 2 2 2 2 4 4 4 4 3 4 4 4 4 4 4 7 6 6 7 7 6 6 8 8 8 7 7 7 12 18 20 21 22
8 8 8 7 7 6 4 3 2 2 1 0 1 1 3 4 4 3 3 4 4 4 4 5 6 4 8 8 9 9 8 9 9 8 8 9 9 9 7 13 19 19 21
7 6 6 6 7 6 4 2 1 0 0 0 1 1 3 3 4 3 3 4 4 4 4 3 5 4 4 7 9 11 8 7 7 5 7 7 7 7 7 7 7 7 17
6 7 7 8 7 4 2 2 1 2 1 1 1 2 3 3 4 4 3 4 4 4 4 5 6 8 5 4 7 6 5 6 4 4 4 4 5 4 5 5 5 4 7
7 7 7 7 7 5 3 2 2 1 1 1 1 2 2 3 3 4 4 4 5 4 5 4 5 5 3 2 3 5 6 5 2 9 2 3 4 4 6 8 7 8 6
8 8 7 7 7 5 5 2 2 2 2 2 1 1 1 3 4 3 4 3 4 3 3 4 4 4 5 2 4 2 4 3 11 3 8 2 6 7 5 7 8 7 7
6 6 5 5 5 5 6 4 5 4 4 3 2 2 3 3 4 4 4 4 4 3 4 4 5 3 4 6 3 5 6 7 4 8 2 7 12 7 9 8 8 8 9
5 6 5 5 5 4 5 6 5 4 3 1 1 3 3 3 4 5 5 5 4 4 5 6 7 5 5 6 6 5 7 7 8 9 15 8 9 8 7 8 7 8 9
3 4 4 4 4 4 5 7 7 7 5 3 2 3 3 3 3 5 5 5 5 5 6 6 7 7 7 7 6 7 7 6 6 8 11 12 15 11 9 9 9 8 7
Wind_Direction
319 54 77 80 76 71 65 64 64 67 68 68 67 62 62 64 60 55 50 44 43 49 48 39 35 28 17 34 42 56 69 59 50 48 41 43 39 49 53 20 356 357 46
124 68 86 84 82 79 76 76 74 72 71 70 70 69 64 59 54 52 49 46 37 33 30 45 33 21 15 9 0 22 42 58 55 62 54 36 27 39 50 27 355 9 42
82 68 85 92 91 85 85 80 79 73 68 67 65 67 66 61 57 54 51 46 36 33 29 26 31 29 24 17 358 328 289 325 353 357 48 18 358 9 35 9 347 344 330
89 73 77 86 86 87 83 80 77 74 69 66 65 62 61 58 55 50 50 49 42 35 28 22 25 25 20 14 11 6 336 310 325 309 53 356 344 350 322 275 277 324 331
73 73 84 89 92 90 86 80 78 72 68 66 64 60 55 54 52 48 43 40 38 36 34 29 21 16 11 5 4 2 12 3 317 307 299 308 313 310 333 268 268 282 314
75 78 97 98 93 87 85 79 76 73 68 65 62 59 53 50 47 45 42 39 36 34 32 30 25 21 15 9 5 356 4 2 356 315 287 267 273 291 303 292 236 256 270
91 68 77 95 91 90 86 81 76 70 63 62 60 55 53 50 45 42 40 38 34 30 28 25 21 19 16 12 7 2 357 353 351 335 293 292 266 279 290 289 273 237 261
103 81 62 73 86 87 84 79 76 73 64 63 61 58 55 49 44 40 38 35 32 30 25 23 18 14 10 9 6 6 360 351 341 330 325 295 290 284 280 278 279 248 244
96 88 75 64 66 79 80 75 75 73 66 62 59 58 54 52 46 44 37 35 32 27 24 20 16 12 9 8 5 2 357 349 353 322 313 309 296 295 287 280 277 280 236
103 103 98 86 78 77 63 78 74 74 68 65 61 60 54 51 48 41 39 32 30 26 23 21 15 12 8 6 2 359 355 357 355 338 319 297 300 295 290 285 277 272 257
109 113 112 107 98 100 92 74 70 72 68 64 56 56 48 39 41 36 36 33 28 24 20 18 13 11 7 2 360 357 356 351 341 338 327 331 336 311 293 286 282 272 267
164 162 136 122 123 99 94 85 75 72 65 60 49 51 54 51 38 47 34 31 25 22 17 14 10 7 3 351 345 353 346 335 332 326 316 325 326 321 320 319 292 278 270
166 143 162 149 135 114 100 93 73 76 68 57 49 45 45 47 37 33 29 19 12 12 9 5 1 359 350 344 340 334 328 329 321 316 313 316 316 313 309 312 306 315 283
172 178 172 162 144 129 118 109 108 87 71 57 42 38 41 34 28 21 20 9 13 360 359 353 345 334 336 328 323 324 322 316 315 311 302 309 310 308 302 299 299 299 293
186 181 183 169 165 151 137 135 118 98 85 77 48 37 42 33 25 13 7 3 358 352 352 343 339 333 326 321 315 306 312 310 305 301 297 299 303 302 300 296 292 289 289
190 189 177 183 179 162 163 158 137 115 102 75 57 39 39 46 24 19 358 351 345 340 322 319 318 314 310 306 309 307 292 289 287 289 290 294 296 297 296 294 291 289 287
192 176 190 181 180 178 165 148 141 123 93 66 28 19 19 26 15 3 348 338 324 324 329 333 325 321 320 318 307 304 293 285 278 277 279 279 287 288 286 285 287 290 290
170 183 181 179 171 173 160 147 141 101 79 61 22 8 6 359 4 355 348 335 329 337 339 339 327 333 328 323 316 307 298 285 276 271 275 275 277 281 287 288 288 286 285
190 178 185 177 171 164 150 142 143 116 108 113 33 9 342 347 350 355 339 328 340 337 337 330 332 327 325 320 312 311 303 295 284 284 287 278 275 278 283 287 293 292 289
185 175 156 150 155 155 126 119 109 20 284 209 209 309 347 344 347 358 345 337 341 329 320 321 312 310 293 302 308 301 289 272 273 282 277 282 276 276 282 285 282 283 285
153 156 161 153 170 143 133 164 214 229 190 261 289 324 339 336 342 347 331 333 334 332 317 316 316 317 316 306 311 313 281 267 278 279 284 286 296 308 307 301 292 285 294
157 155 159 174 171 181 149 161 144 143 155 215 262 305 323 337 345 328 337 326 332 326 321 315 318 315 285 335 315 302 331 338 4 319 299 332 358 331 327 318 305 309 302
159 168 174 178 181 188 178 120 93 58 34 348 300 301 311 328 311 302 297 291 302 302 303 302 299 292 294 293 270 263 322 305 337 298 319 263 334 326 307 306 301 301 316
173 157 161 177 194 204 179 175 185 189 201 209 192 230 287 289 300 301 300 292 296 294 298 293 300 283 295 294 307 254 258 277 306 310 289 329 305 302 313 304 299 293 295
149 170 185 193 212 218 198 199 193 206 211 197 235 277 287 297 301 302 295 286 276 268 258 281 280 270 267 264 255 270 269 265 264 269 290 294 298 295 287 282 288 293 287
188 184 188 199 236 225 203 201 199 207 216 235 252 270 287 297 301 293 283 265 255 258 284 281 270 266 269 270 268 265 264 271 278 279 287 296 294 297 289 286 279 283 276